Hourly Data Report for December 04, 2021

KUGAARUK CLIMATE
NUNAVUT
Current Station Operator: ECCC - MSC

68°32'15.060" N
89°47'47.020" W
15.80 m
2303094
71407
NBB

Download Data

Hourly Data (December 2021)
Hourly Data Report for December 4, 2021
TIME
LST
Temp Definition
°C
Dew Point Definition
°C
Rel Hum Definition
%
Precip. Amount Definition
mm

Wind Dir Definition
10's deg

Wind Spd Definition
km/h
Visibility Definition
km
Stn Press Definition
kPa
Hmdx Definition


Wind Chill Definition


Weather Definition


00:00 -26.3 -30.0 71 0.2 29 26   99.97   -40 LegendNANA
01:00 -25.9 -29.4 72 0.0 28 23   99.93   -39 LegendNANA
02:00 -25.6 -29.5 70 0.0 30 22   99.88   -38 LegendNANA
03:00 -25.5 -29.3 71 0.0 29 21   99.86   -38 LegendNANA
04:00 -25.9 -29.8 70 0.0 29 19   99.83   -38 LegendNANA
05:00 -25.9 -29.7 70 0.0 29 15   99.78   -36 LegendNANA
06:00 -25.9 -29.7 71 0.0 29 24   99.74   -39 LegendNANA
07:00 -26.3 -30.2 69 0.0 28 26   99.68   -40 LegendNANA
08:00 -26.4 -30.3 70 0.0 28 29   99.64   -41 LegendNANA
09:00 -26.6 -30.2 71 0.0 28 30   99.56   -41 LegendNANA
10:00 -25.9 -29.7 71 0.0 28 21   99.56   -38 LegendNANA
11:00 -25.8 -29.3 72 0.0 28 23   99.52   -39 LegendNANA
12:00 -26.3 -29.8 72 0.0 28 32   99.47   -41 LegendNANA
13:00 -26.4 -30.0 72 0.0 28 28   99.50   -41 LegendNANA
14:00 -26.6 -30.0 73 0.0 27 32   99.49   -42 LegendNANA
15:00 -26.5 -30.0 72 0.0 27 24   99.51   -40 LegendNANA
16:00 -26.8 -30.3 72 0.0 27 33   99.44   -42 LegendNANA
17:00 -26.7 -30.1 73 0.0 28 36   99.39   -42 LegendNANA
18:00 -26.4 -29.9 73 0.0 27 34   99.36   -42 LegendNANA
19:00 -26.2 -29.5 74 0.0 27 24   99.36   -39 LegendNANA
20:00 -26.2 -29.5 74 0.0 27 25   99.33   -40 LegendNANA
21:00 -26.1 -29.4 73 0.0 27 35   99.28   -41 LegendNANA
22:00 -26.0 -29.3 74 0.2 26 37   99.26   -42 LegendNANA
23:00 -25.6 -28.7 75 0.0 26 37   99.23   -41 LegendNANA

Notes on Data Quality.

Legend

  • E = Estimated
  • M = Missing
  • NA = Not Available*
  • [empty] = Indicates an unobserved value
Date modified: